Weather History for KTNB - August, 2013

Change the Weather History Date:

Wednesday, August 21, 2013

  Actual Average (KGEV) Record (KGEV)
Temperature  
Mean Temperature 68 °F -  
Max Temperature 76 °F 78 °F 92 °F (1983)
Min Temperature 60 °F 58 °F 49 °F (1987)
Cooling Degree Days 3    
Growing Degree Days 18 (Base 50)    
Moisture  
Dew Point 63 °F    
Average Humidity 89    
Maximum Humidity 100    
Minimum Humidity 63    
Precipitation  
Precipitation 0.00 in - - ()
Sea Level Pressure  
Sea Level Pressure 30.31 in    
Wind  
Wind Speed 1 mph (SSW)    
Max Wind Speed 9 mph    
Max Gust Speed 16 mph    
Visibility 10 miles    
Events Rain    
Averages and records for this station are not official NWS values.
T = Trace of Precipitation, MM = Missing Value Source: NWS Daily Summary

Daily Weather History Graph

Daily Weather History Graph

Search for Another Location

Airport or City:

Trip Planner

Search our weather history database for the weather conditions in past years. The results will help you decide how hot, cold, wet, or windy it might be!

Date:

Astronomy

Aug. 21, 2013 Rise Set
Actual Time 6:49 AM EDT 8:08 PM EDT
Civil Twilight 6:22 AM EDT 8:35 PM EDT
Nautical Twilight 5:50 AM EDT 9:07 PM EDT
Astronomical Twilight 5:17 AM EDT 9:41 PM EDT
Moon 8:20 PM EDT (8/21) 7:25 AM EDT (8/21)
Length of Visible Light 14h 12m
Length of Day
13h 19m
Full, 100% of the Moon is Illuminated
Aug 21
Full
Aug 28
Last Quarter
Sep 5
New
Sep 12
First Quarter
Sep 19
Full

Hourly Weather History & Observations

Time (EDT) Temp. Dew Point Humidity Pressure Visibility Wind Dir Wind Speed Gust Speed Precip Events Conditions
12:15 AM 63.7 °F 63.5 °F 99% 30.32 in 10.0 mi Calm Calm - N/A   Clear
12:35 AM 63.9 °F 63.7 °F 99% 30.33 in 10.0 mi Calm Calm - N/A   Mostly Cloudy
12:55 AM 64.2 °F 63.9 °F 99% 30.32 in 10.0 mi Calm Calm - N/A   Overcast
1:15 AM 65.1 °F 64.2 °F 97% 30.32 in 10.0 mi Calm Calm - N/A   Overcast
1:35 AM 65.5 °F 63.7 °F 94% 30.32 in 10.0 mi Calm Calm - N/A   Scattered Clouds
1:55 AM 64.6 °F 63.7 °F 97% 30.31 in 10.0 mi Calm Calm - N/A   Clear
2:15 AM 63.5 °F 63.3 °F 99% 30.31 in 10.0 mi Calm Calm - N/A   Clear
2:35 AM 62.8 °F 62.8 °F 100% 30.30 in 10.0 mi Calm Calm - N/A   Clear
2:55 AM 63.0 °F 63.0 °F 100% 30.29 in 10.0 mi Calm Calm - N/A   Clear
3:15 AM 62.6 °F 62.6 °F 100% 30.29 in 10.0 mi Calm Calm - N/A   Clear
3:35 AM 61.9 °F 61.9 °F 100% 30.29 in 7.0 mi Calm Calm - N/A   Clear
3:55 AM 62.1 °F 62.1 °F 100% 30.29 in 7.0 mi Calm Calm - N/A   Clear
4:15 AM 62.6 °F 62.6 °F 100% 30.29 in 10.0 mi Calm Calm - N/A   Scattered Clouds
4:35 AM 61.9 °F 61.9 °F 100% 30.29 in 10.0 mi Calm Calm - N/A   Clear
4:55 AM 61.2 °F 61.2 °F 100% 30.29 in 5.0 mi Calm Calm - N/A   Clear
5:15 AM 61.9 °F 61.9 °F 100% 30.29 in 10.0 mi Calm Calm - N/A   Clear
5:35 AM 61.2 °F 61.2 °F 100% 30.30 in 7.0 mi Calm Calm - N/A   Clear
5:55 AM 61.7 °F 61.7 °F 100% 30.30 in 10.0 mi Calm Calm - N/A   Clear
6:15 AM 60.8 °F 60.8 °F 100% 30.31 in 7.0 mi Calm Calm - N/A   Clear
6:35 AM 61.0 °F 61.0 °F 100% 30.32 in 10.0 mi Calm Calm - N/A   Clear
6:55 AM 61.7 °F 61.7 °F 100% 30.32 in 10.0 mi Calm Calm - N/A   Clear
7:15 AM 61.0 °F 61.0 °F 100% 30.33 in 7.0 mi Calm Calm - N/A   Clear
7:35 AM 61.0 °F 61.0 °F 100% 30.34 in 7.0 mi Calm Calm - N/A   Clear
7:55 AM 61.7 °F 61.7 °F 100% 30.33 in 10.0 mi Calm Calm - N/A   Clear
8:15 AM 62.2 °F 62.2 °F 100% 30.34 in 10.0 mi Calm Calm - N/A   Clear
8:35 AM 64.0 °F 63.5 °F 98% 30.33 in 10.0 mi Calm Calm - N/A   Clear
8:55 AM 64.2 °F 63.3 °F 97% 30.33 in 10.0 mi Calm Calm - N/A   Clear
9:15 AM 64.6 °F 63.9 °F 98% 30.33 in 10.0 mi Calm Calm - N/A   Clear
9:35 AM 65.1 °F 64.2 °F 97% 30.32 in 10.0 mi Calm Calm - N/A   Clear
9:55 AM 65.7 °F 64.6 °F 96% 30.34 in 10.0 mi ESE 3.5 mph - N/A Rain Light Rain
10:15 AM 68.0 °F 64.0 °F 87% 30.35 in 10.0 mi SW 4.6 mph - N/A Rain Light Rain
10:35 AM 68.0 °F 64.6 °F 89% 30.36 in 10.0 mi South 6.9 mph - N/A Rain Light Rain
10:55 AM 68.0 °F 64.6 °F 89% 30.37 in 10.0 mi SW 3.5 mph - N/A   Clear
11:15 AM 69.3 °F 65.7 °F 88% 30.36 in 10.0 mi Calm Calm - N/A   Clear
11:35 AM 69.3 °F 65.5 °F 88% 30.36 in 10.0 mi Calm Calm - N/A   Clear
11:55 AM 68.7 °F 66.7 °F 93% 30.36 in 10.0 mi Calm Calm - N/A Rain Light Rain
12:15 PM 69.8 °F 66.7 °F 90% 30.35 in 10.0 mi Calm Calm - N/A   Clear
12:35 PM 71.1 °F 62.1 °F 73% 30.34 in 10.0 mi Calm Calm - N/A   Clear
12:55 PM 72.1 °F 59.0 °F 63% 30.34 in 10.0 mi South 6.9 mph - N/A   Clear
1:15 PM 71.8 °F 59.7 °F 66% 30.34 in 10.0 mi SSW 3.5 mph - N/A   Clear
1:35 PM 71.6 °F 60.4 °F 68% 30.33 in 10.0 mi South 4.6 mph - N/A   Clear
1:55 PM 71.6 °F 61.5 °F 70% 30.33 in 10.0 mi Calm Calm - N/A   Clear
2:15 PM 72.0 °F 63.7 °F 75% 30.32 in 10.0 mi Calm Calm - N/A   Clear
2:35 PM 72.7 °F 62.6 °F 71% 30.31 in 10.0 mi SE 3.5 mph - N/A   Clear
2:55 PM 75.9 °F 64.8 °F 68% 30.30 in 10.0 mi SSE 4.6 mph - N/A   Clear
3:15 PM 76.8 °F 63.7 °F 64% 30.30 in 10.0 mi SW 8.1 mph - N/A   Clear
3:35 PM 74.7 °F 62.8 °F 66% 30.30 in 10.0 mi SSW 9.2 mph - N/A   Clear
3:55 PM 73.4 °F 63.0 °F 70% 30.30 in 10.0 mi SSW 9.2 mph - N/A   Clear
4:15 PM 72.3 °F 63.7 °F 74% 30.30 in 10.0 mi South 5.8 mph - N/A   Clear
4:35 PM 72.5 °F 64.0 °F 75% 30.29 in 10.0 mi South 5.8 mph - N/A   Clear
4:55 PM 72.1 °F 64.0 °F 76% 30.28 in 10.0 mi SSW 5.8 mph - N/A   Scattered Clouds
5:15 PM 73.8 °F 64.4 °F 72% 30.28 in 10.0 mi SSW 4.6 mph - N/A   Clear
5:35 PM 71.6 °F 63.7 °F 76% 30.27 in 10.0 mi SSW 8.1 mph 16.1 mph N/A   Clear
5:55 PM 72.5 °F 63.5 °F 73% 30.26 in 10.0 mi WSW 4.6 mph - N/A   Scattered Clouds
6:15 PM 72.1 °F 63.9 °F 75% 30.25 in 10.0 mi Calm Calm - N/A   Clear
6:35 PM 72.3 °F 63.9 °F 75% 30.25 in 10.0 mi NW 3.5 mph - N/A   Clear
6:55 PM 72.5 °F 63.7 °F 74% 30.26 in 10.0 mi NW 4.6 mph - N/A   Clear
7:15 PM 71.8 °F 63.1 °F 74% 30.26 in 10.0 mi Calm Calm - N/A   Clear
7:35 PM 70.9 °F 62.8 °F 75% 30.27 in 10.0 mi Calm Calm - N/A   Clear
7:55 PM 70.7 °F 63.1 °F 77% 30.27 in 10.0 mi Calm Calm - N/A   Clear
8:15 PM 69.6 °F 65.5 °F 87% 30.27 in 10.0 mi Calm Calm - N/A   Clear
8:35 PM 69.8 °F 66.7 °F 90% 30.27 in 10.0 mi West 3.5 mph - N/A   Clear
8:55 PM 68.9 °F 66.7 °F 93% 30.27 in 10.0 mi Calm Calm - N/A   Clear
9:15 PM 68.9 °F 67.1 °F 94% 30.27 in 10.0 mi West 3.5 mph - N/A   Clear
9:35 PM 68.4 °F 66.7 °F 95% 30.28 in 10.0 mi Calm Calm - N/A   Clear
9:55 PM 68.4 °F 66.6 °F 94% 30.29 in 10.0 mi West 4.6 mph - N/A   Clear
10:15 PM 68.0 °F 66.2 °F 94% 30.29 in 10.0 mi NW 3.5 mph - N/A   Clear
10:35 PM 66.0 °F 64.8 °F 96% 30.30 in 10.0 mi Calm Calm - N/A   Clear
10:55 PM 64.4 °F 64.4 °F 100% 30.30 in 7.0 mi Calm Calm - N/A   Scattered Clouds
11:15 PM 64.9 °F 64.4 °F 98% 30.30 in 10.0 mi Calm Calm - N/A   Mostly Cloudy
11:35 PM 64.9 °F 64.6 °F 99% 30.30 in 10.0 mi Calm Calm - N/A   Scattered Clouds
11:55 PM 64.2 °F 63.9 °F 99% 30.29 in 7.0 mi Calm Calm - N/A   Clear